Location: Curupao
(10.4996°N, 66.6442°W)
Time: 20:49:45
(UTC+00:00)

Aureole 1 Rocket - Pass Details

Date: 23 May 2024
Orbit: 377 x 1261 km, 73.9° (Epoch: 23 June)

Event Time Altitude Azimuth Distance (km) Brightness Sun altitude
Exits shadow 08:40:04 20° 169° (S) 1,178 4.3 -19.7°
Maximum altitude 08:42:15 45° 104° (ESE) 624 3.4 -19.2°
Drops below altitude 10° 08:45:17 10° 30° (NNE) 1,471 5.8 -18.5°
Sets 08:47:12 0° 23° (NNE) 2,278 6.8 -18.1°
